DW0893 Weather Reports


time (UTC)temp
F
wind
direction
speed
knots
gust
knots
rain 1hr
in
rain 24hr
in
rain mn
in
humidity
%
barometer
mb
20260510162557 55 360 3.5 12.2 0.00 0.00 0.00 62 1014.7
20260510162056 55 43 5.2 13.9 0.00 0.00 0.00 62 1014.8
20260510161555 55 45 6.1 13.9 0.00 0.00 0.00 63 1015.0
20260510161056 54 355 6.1 14.8 0.00 0.00 0.00 63 1015.0
20260510160556 54 82 7.0 14.8 0.00 0.00 0.00 63 1014.9
20260510160117 54 50 7.0 14.8 0.00 0.00 0.00 64 1015.2
20260510155556 54 72 6.1 14.8 0.00 0.00 0.00 64 1015.1
20260510155056 53 42 7.8 14.8 0.00 0.00 0.00 65 1015.2
20260510154606 53 51 7.0 13.0 0.00 0.00 0.00 66 1015.2
20260510154056 53 89 5.2 14.8 0.00 0.00 0.00 66 1015.3
20260510153557 53 30 7.8 14.8 0.00 0.00 0.00 66 1015.4
20260510153057 53 39 6.1 13.0 0.00 0.00 0.00 65 1015.4
20260510152555 53 47 4.3 13.0 0.00 0.00 0.00 66 1015.4
20260510152054 53 355 4.3 12.2 0.00 0.00 0.00 66 1015.4
20260510151601 53 59 4.3 13.0 0.00 0.00 0.00 66 1015.6
20260510151055 53 34 6.1 13.0 0.00 0.00 0.00 66 1015.5
20260510150555 53 91 5.2 12.2 0.00 0.00 0.00 66 1015.7
20260510145554 53 355 4.3 13.0 0.00 0.00 0.00 66 1015.8
20260510145057 53 26 6.1 13.0 0.00 0.00 0.00 67 1015.7
20260510144615 53 38 5.2 12.2 0.00 0.00 0.00 67 1015.8
20260510144055 53 31 5.2 13.9 0.00 0.00 0.00 68 1016.0
20260510143556 53 36 7.0 13.9 0.00 0.00 0.00 67 1016.0
20260510143100 53 30 5.2 13.0 0.00 0.00 0.00 68 1016.0
20260510142558 53 68 3.5 13.0 0.00 0.00 0.00 68 1016.1
20260510142056 53 55 5.2 13.0 0.00 0.00 0.00 68 1016.3
20260510141555 53 71 7.0 13.0 0.00 0.00 0.00 68 1016.2
20260510141056 53 36 5.2 13.9 0.00 0.00 0.00 68 1016.3
20260510140556 54 74 7.0 13.9 0.00 0.00 0.00 68 1016.3
20260510140056 54 34 7.8 13.9 0.00 0.00 0.00 68 1016.2
20260510135556 54 57 6.1 12.2 0.00 0.00 0.00 68 1016.2
20260510135056 54 52 5.2 12.2 0.00 0.00 0.00 68 1016.3
20260510134556 54 33 7.8 12.2 0.00 0.00 0.00 68 1016.3
20260510134056 54 30 4.3 13.9 0.00 0.00 0.00 68 1016.3
20260510133558 54 59 5.2 13.9 0.00 0.00 0.00 67 1016.3
20260510133055 54 90 7.8 13.9 0.00 0.00 0.00 67 1016.3
20260510132556 54 70 3.5 11.3 0.00 0.00 0.00 68 1016.3
20260510132057 54 51 3.5 14.8 0.00 0.00 0.00 69 1016.3
20260510131554 54 36 7.0 14.8 0.00 0.00 0.00 69 1016.3
20260510131056 54 42 3.5 12.2 0.00 0.00 0.00 69 1016.3
20260510130557 54 49 4.3 16.5 0.00 0.00 0.00 69 1016.3
20260510130056 54 36 7.8 16.5 0.00 0.00 0.00 69 1016.4
20260510125556 54 34 4.3 15.6 0.00 0.00 0.00 70 1016.4
20260510125057 54 47 7.0 16.5 0.00 0.00 0.00 69 1016.6
20260510124609 54 18 6.1 16.5 0.00 0.00 0.00 69 1016.5
20260510124056 55 51 6.1 13.0 0.00 0.00 0.00 68 1016.7
20260510123557 55 78 6.1 13.0 0.00 0.00 0.00 68 1016.6
20260510123058 55 37 6.1 13.9 0.00 0.00 0.00 68 1016.7
20260510122559 55 28 4.3 16.5 0.00 0.00 0.00 69 1016.8
20260510122056 55 18 7.0 16.5 0.00 0.00 0.00 68 1016.9
20260510121557 55 91 7.8 16.5 0.00 0.00 0.00 66 1016.7
20260510121059 56 66 8.7 15.6 0.00 0.00 0.00 65 1016.7
20260510120559 56 44 7.0 14.8 0.00 0.00 0.00 64 1016.6
20260510120057 57 52 7.0 14.8 0.00 0.00 0.00 64 1016.6
20260510115558 57 2 7.0 14.8 0.00 0.00 0.00 63 1016.6
20260510115058 58 52 5.2 17.4 0.00 0.00 0.00 64 1016.5
20260510114558 57 19 7.8 17.4 0.00 0.00 0.00 63 1016.6
20260510114059 57 66 7.8 15.6 0.00 0.00 0.00 64 1016.6
20260510113559 57 88 5.2 13.9 0.00 0.00 0.00 64 1016.8
20260510113104 56 43 6.1 14.8 0.00 0.00 0.00 64 1016.9
20260510112558 56 54 7.8 14.8 0.00 0.00 0.00 63 1016.9
20260510112058 56 21 6.1 13.9 0.00 0.00 0.00 63 1017.0
20260510111557 56 71 5.2 12.2 0.00 0.00 0.00 63 1017.0
20260510111059 57 55 6.1 13.0 0.00 0.00 0.00 63 1017.0
20260510110602 57 34 7.0 13.9 0.00 0.00 0.00 63 1017.0
20260510110058 57 57 6.1 13.9 0.00 0.00 0.00 62 1017.2
20260510105558 58 5 5.2 13.0 0.00 0.00 0.00 63 1017.2
20260510105059 58 57 3.5 13.0 0.00 0.00 0.00 64 1017.3
20260510104604 58 55 4.3 13.9 0.00 0.00 0.00 64 1017.2
20260510104100 58 24 6.1 13.9 0.00 0.00 0.00 63 1017.2
20260510103558 57 35 4.3 13.9 0.00 0.00 0.00 63 1017.3
20260510103056 57 64 6.1 13.9 0.00 0.00 0.00 64 1017.2
20260510102559 57 78 6.1 14.8 0.00 0.00 0.00 64 1017.2
20260510102059 56 87 6.1 14.8 0.00 0.00 0.00 63 1017.3
20260510101601 56 21 6.1 15.6 0.00 0.00 0.00 64 1017.4
20260510101058 56 36 7.0 15.6 0.00 0.00 0.00 63 1017.3
20260510100601 56 85 8.7 15.6 0.00 0.00 0.00 62 1017.4
20260510100057 57 67 8.7 14.8 0.00 0.00 0.00 64 1017.3
20260510095558 56 108 7.0 14.8 0.00 0.00 0.00 65 1017.4
20260510095058 55 49 7.0 14.8 0.00 0.00 0.00 66 1017.4
20260510094611 55 78 5.2 13.0 0.00 0.00 0.00 67 1017.4
20260510094058 55 99 7.0 13.9 0.00 0.00 0.00 67 1017.4
20260510093558 55 70 5.2 13.9 0.00 0.00 0.00 67 1017.5
20260510093119 55 45 7.8 13.0 0.00 0.00 0.00 67 1017.6
20260510092558 55 78 5.2 12.2 0.00 0.00 0.00 67 1017.6
20260510092100 55 82 6.1 14.8 0.00 0.00 0.00 68 1017.6
20260510091600 55 39 6.1 14.8 0.00 0.00 0.00 68 1017.5
20260510091058 55 43 7.8 16.5 0.00 0.00 0.00 69 1017.6
20260510090601 54 64 7.8 16.5 0.00 0.00 0.00 70 1017.6
20260510090110 54 22 5.2 16.5 0.00 0.00 0.00 72 1017.7
20260510085600 53 78 7.8 16.5 0.00 0.00 0.00 72 1017.7
20260510085058 53 54 3.5 14.8 0.00 0.00 0.00 74 1017.8
20260510084601 52 26 7.0 14.8 0.00 0.00 0.00 74 1017.8
20260510084058 52 47 7.0 13.9 0.00 0.00 0.00 75 1017.8
20260510083558 52 30 6.1 12.2 0.00 0.00 0.00 76 1017.9
20260510083058 51 68 6.1 17.4 0.00 0.00 0.00 76 1017.9
20260510082604 51 30 7.0 17.4 0.00 0.00 0.00 76 1017.9
20260510082058 51 32 6.1 13.0 0.00 0.00 0.00 77 1017.8
20260510081557 51 64 4.3 14.8 0.00 0.00 0.00 77 1017.9
20260510081101 51 26 6.1 14.8 0.00 0.00 0.00 78 1017.9
20260510080558 51 37 6.1 13.9 0.00 0.00 0.00 77 1017.9
20260510080056 51 88 7.0 13.0 0.00 0.00 0.00 78 1017.9
20260510075557 50 61 5.2 13.9 0.00 0.00 0.00 78 1017.9
20260510075057 50 45 5.2 16.5 0.00 0.00 0.00 79 1017.9
20260510074558 50 30 4.3 16.5 0.00 0.00 0.00 79 1018.0
20260510074059 50 68 5.2 13.0 0.00 0.00 0.00 80 1018.0
20260510073558 50 41 5.2 13.0 0.00 0.00 0.00 80 1018.1
20260510073058 50 109 7.0 13.0 0.00 0.00 0.00 80 1018.0
20260510072558 50 32 6.1 13.0 0.00 0.00 0.00 81 1018.0
20260510072058 50 33 4.3 11.3 0.00 0.00 0.00 82 1017.9
20260510071557 49 52 5.2 12.2 0.00 0.00 0.00 82 1017.8
20260510071058 49 73 5.2 12.2 0.00 0.00 0.00 82 1017.9
20260510070558 49 26 3.5 14.8 0.00 0.00 0.00 82 1017.9
20260510070058 49 66 6.1 14.8 0.00 0.00 0.00 83 1017.9
20260510065601 49 37 5.2 12.2 0.00 0.00 0.00 83 1017.9
20260510065101 49 53 3.5 9.6 0.00 0.00 0.00 84 1017.8
20260510064557 49 38 0.9 13.0 0.00 0.00 0.00 84 1017.9
20260510064057 49 27 5.2 13.0 0.00 0.00 0.00 84 1017.9
20260510063602 48 47 5.2 13.0 0.00 0.00 0.00 84 1017.9
20260510063057 48 95 5.2 11.3 0.00 0.00 0.00 84 1017.9
20260510062601 48 51 4.3 12.2 0.00 0.00 0.00 84 1017.8
20260510062058 48 33 6.1 12.2 0.00 0.00 0.00 85 1017.8
20260510061557 48 46 3.5 9.6 0.00 0.00 0.00 85 1017.7
20260510061058 48 60 3.5 9.6 0.00 0.00 0.00 85 1017.7
20260510060558 48 122 2.6 8.7 0.00 0.00 0.00 85 1017.7
20260510060058 48 32 2.6 8.7 0.00 0.00 0.00 86 1017.6
20260510055556 48 28 3.5 8.7 0.00 0.00 0.00 86 1017.6
20260510055055 48 62 3.5 7.8 0.00 0.00 0.00 86 1017.6
20260510054556 48 39 1.7 8.7 0.00 0.00 0.00 86 1017.6
20260510054054 48 0 1.7 10.4 0.00 0.00 0.00 86 1017.6
20260510053555 48 39 2.6 10.4 0.00 0.00 0.00 86 1017.6
20260510053104 48 49 2.6 12.2 0.00 0.00 0.00 86 1017.6
20260510052555 48 53 4.3 12.2 0.00 0.00 0.00 86 1017.7
20260510052055 47 30 4.3 10.4 0.00 0.00 0.00 86 1017.7
20260510051558 47 0 2.6 8.7 0.00 0.00 0.00 86 1017.7
20260510051055 47 61 2.6 8.7 0.00 0.00 0.00 86 1017.6
20260510050600 47 55 5.2 8.7 0.00 0.00 0.00 86 1017.6
20260510050056 47 83 2.6 14.8 0.00 0.00 0.00 86 1017.7
20260510045557 47 27 2.6 14.8 0.00 0.00 0.00 86 1017.6
20260510045056 47 17 5.2 14.8 0.00 0.00 0.00 86 1017.6
20260510044557 47 27 2.6 8.7 0.00 0.00 0.00 86 1017.6
20260510044055 47 19 2.6 8.7 0.00 0.00 0.00 86 1017.6
20260510043554 47 28 3.5 8.7 0.00 0.00 0.00 86 1017.6
20260510043103 47 50 2.6 7.8 0.00 0.00 0.00 86 1017.6
20260510042556 47 57 2.6 7.8 0.00 0.00 0.00 86 1017.6
20260510042059 47 43 3.5 7.8 0.00 0.00 0.00 86 1017.7
20260510041555 47 44 1.7 7.8 0.00 0.00 0.00 86 1017.6
20260510041055 47 61 0.9 7.8 0.00 0.00 0.00 86 1017.7
20260510040557 47 72 1.7 7.8 0.00 0.00 0.00 85 1017.7
20260510040058 48 27 0.9 7.0 0.00 0.00 0.00 85 1017.8
20260510035555 48 0 2.6 7.0 0.00 0.00 0.00 85 1018.0
20260510035057 48 51 3.5 9.6 0.00 0.00 0.00 85 1017.9
20260510034556 48 41 4.3 10.4 0.00 0.00 0.00 85 1017.8
20260510034055 48 55 4.3 10.4 0.00 0.00 0.00 85 1017.9
20260510033554 48 16 2.6 10.4 0.00 0.00 0.00 85 1017.9
20260510033107 48 41 4.3 10.4 0.00 0.00 0.00 85 1018.0
20260510032555 48 40 3.5 9.6 0.00 0.00 0.00 85 1018.0
20260510032055 48 58 3.5 8.7 0.00 0.00 0.00 85 1018.1
20260510031556 48 59 1.7 8.7 0.00 0.00 0.00 85 1018.0
20260510031054 48 36 3.5 8.7 0.00 0.00 0.00 84 1018.2
20260510030554 48 59 0.9 5.2 0.00 0.00 0.00 84 1018.1
20260510025556 48 70 0.9 9.6 0.00 0.00 0.00 84 1018.1
20260510025057 48 32 3.5 9.6 0.00 0.00 0.00 84 1018.0
20260510024658 48 53 2.6 10.4 0.00 0.00 0.00 84 1018.0
20260510024057 48 17 2.6 10.4 0.00 0.00 0.00 84 1018.0
20260510023557 49 43 2.6 9.6 0.00 0.00 0.00 83 1018.0
20260510023057 49 68 2.6 7.8 0.00 0.00 0.00 83 1018.0
20260510022600 49 35 2.6 8.7 0.00 0.00 0.00 83 1018.1
20260510022057 49 38 3.5 8.7 0.00 0.00 0.00 83 1018.0
20260510021558 49 53 3.5 10.4 0.00 0.00 0.00 82 1018.0
20260510021056 49 0 2.6 10.4 0.00 0.00 0.00 82 1018.1
20260510020556 49 43 4.3 10.4 0.00 0.00 0.00 82 1018.0
20260510020058 49 54 3.5 10.4 0.00 0.00 0.00 81 1017.9
20260510015557 49 24 2.6 10.4 0.00 0.00 0.00 80 1018.0
20260510015056 49 38 2.6 10.4 0.00 0.00 0.00 80 1018.0
20260510014556 49 36 3.5 10.4 0.00 0.00 0.00 79 1017.9
20260510014056 50 44 2.6 8.7 0.00 0.00 0.00 77 1018.0
20260510013556 50 32 1.7 9.6 0.00 0.00 0.00 76 1017.9
20260510013057 50 37 2.6 9.6 0.00 0.00 0.00 74 1017.9
20260510012556 50 34 2.6 9.6 0.00 0.00 0.00 72 1018.0
20260510012056 50 50 3.5 9.6 0.00 0.00 0.00 70 1018.0
20260510011557 50 45 0.9 6.1 0.00 0.00 0.00 69 1018.0
20260510011055 50 16 3.5 6.1 0.00 0.00 0.00 68 1018.0
20260510010555 51 42 2.6 6.1 0.00 0.00 0.00 67 1018.0
20260510010059 51 33 2.6 7.8 0.00 0.00 0.00 66 1018.0
20260510005558 51 36 3.5 7.8 0.00 0.00 0.00 66 1017.9
20260510005057 51 26 4.3 9.6 0.00 0.00 0.00 65 1017.9
20260510004602 51 39 4.3 11.3 0.00 0.00 0.00 65 1017.9
20260510004056 52 37 4.3 11.3 0.00 0.00 0.00 65 1018.0
20260510003556 52 32 2.6 9.6 0.00 0.00 0.00 65 1018.0
20260510003058 52 0 4.3 9.6 0.00 0.00 0.00 65 1018.0
20260510002556 52 34 3.5 13.0 0.00 0.00 0.00 65 1018.0
20260510002057 52 32 3.5 13.0 0.00 0.00 0.00 65 1017.9
20260510001557 52 24 3.5 13.0 0.00 0.00 0.00 65 1018.0
20260510001056 52 44 3.5 7.8 0.00 0.00 0.00 64 1018.0
20260510000556 52 43 2.6 8.7 0.00 0.00 0.00 64 1017.9
20260509235604 52 44 1.7 8.7 0.00 0.00 0.00 63 1018.0
20260509235059 52 52 2.6 8.7 0.00 0.00 0.00 62 1017.9
20260509234558 52 61 2.6 7.8 0.00 0.00 0.00 62 1018.0
20260509234059 52 51 1.7 4.3 0.00 0.00 0.00 61 1017.8
20260509233601 52 51 0.9 4.3 0.00 0.00 0.00 61 1017.8
20260509233058 53 58 0.9 4.3 0.00 0.00 0.00 61 1017.7
20260509232559 53 57 0.0 4.3 0.00 0.00 0.00 60 1017.8
20260509232059 53 57 0.9 4.3 0.00 0.00 0.00 60 1017.8
20260509231556 53 57 0.0 7.0 0.00 0.00 0.00 59 1017.9
20260509231058 53 57 1.7 7.0 0.00 0.00 0.00 59 1017.9
20260509230601 53 0 2.6 7.0 0.00 0.00 0.00 58 1017.8
20260509230058 53 62 0.9 5.2 0.00 0.00 0.00 57 1017.7
20260509225558 53 66 0.0 3.5 0.00 0.00 0.00 57 1017.8
20260509225058 54 66 0.0 3.5 0.00 0.00 0.00 56 1017.7
20260509224557 54 66 0.9 4.3 0.00 0.00 0.00 56 1017.7
20260509224058 54 0 1.7 4.3 0.00 0.00 0.00 55 1017.8
20260509223600 54 69 1.7 4.3 0.00 0.00 0.00 55 1017.7
20260509223101 54 0 1.7 6.1 0.00 0.00 0.00 54 1017.6
20260509222602 54 69 0.9 6.1 0.00 0.00 0.00 54 1017.7
20260509222058 55 78 0.9 5.2 0.00 0.00 0.00 54 1017.7
20260509221559 55 82 1.7 7.0 0.00 0.00 0.00 53 1017.7
20260509221058 55 82 0.9 7.0 0.00 0.00 0.00 53 1017.6
20260509220557 55 82 1.7 6.1 0.00 0.00 0.00 53 1017.6
20260509220103 55 67 0.9 6.1 0.00 0.00 0.00 53 1017.6
20260509215558 55 66 2.6 6.1 0.00 0.00 0.00 53 1017.6
20260509215058 55 73 1.7 6.1 0.00 0.00 0.00 52 1017.5
20260509214628 55 71 1.7 7.0 0.00 0.00 0.00 52 1017.6
20260509214058 56 72 1.7 7.0 0.00 0.00 0.00 51 1017.7
20260509213558 56 72 1.7 7.8 0.00 0.00 0.00 51 1017.8
20260509213057 56 0 1.7 7.8 0.00 0.00 0.00 50 1017.7
20260509212558 56 77 2.6 9.6 0.00 0.00 0.00 50 1017.7
20260509212059 56 55 4.3 9.6 0.00 0.00 0.00 50 1017.7
20260509211556 56 0 2.6 8.7 0.00 0.00 0.00 50 1017.6
20260509211058 57 89 3.5 8.7 0.00 0.00 0.00 49 1017.5
20260509210559 57 67 3.5 8.7 0.00 0.00 0.00 49 1017.4
20260509210106 57 86 4.3 8.7 0.00 0.00 0.00 49 1017.4
20260509205557 57 68 1.7 7.8 0.00 0.00 0.00 49 1017.3
20260509205057 57 64 1.7 7.8 0.00 0.00 0.00 49 1017.3
20260509204557 58 80 2.6 7.8 0.00 0.00 0.00 48 1017.3
20260509204057 58 82 3.5 7.8 0.00 0.00 0.00 48 1017.3
20260509203558 58 73 2.6 9.6 0.00 0.00 0.00 47 1017.2
20260509203115 58 86 1.7 9.6 0.00 0.00 0.00 47 1017.3
20260509202556 58 91 3.5 10.4 0.00 0.00 0.00 47 1017.1
20260509202056 59 61 4.3 10.4 0.00 0.00 0.00 47 1017.2
20260509201559 59 59 4.3 9.6 0.00 0.00 0.00 47 1017.2
20260509201055 59 81 3.5 9.6 0.00 0.00 0.00 47 1017.1
20260509200558 59 90 3.5 9.6 0.00 0.00 0.00 47 1017.1
20260509200057 60 76 2.6 8.7 0.00 0.00 0.00 47 1017.1
20260509195557 60 83 1.7 7.8 0.00 0.00 0.00 46 1016.9
20260509195057 60 90 4.3 7.8 0.00 0.00 0.00 46 1016.9
20260509194555 60 89 2.6 7.0 0.00 0.00 0.00 46 1016.9
20260509194056 60 86 2.6 7.0 0.00 0.00 0.00 45 1016.9
20260509193557 61 0 2.6 7.8 0.00 0.00 0.00 45 1016.8
20260509193102 61 72 2.6 7.8 0.00 0.00 0.00 45 1016.7
20260509192601 61 66 3.5 7.8 0.00 0.00 0.00 44 1016.7
20260509192056 61 93 3.5 8.7 0.00 0.00 0.00 44 1016.7
20260509191606 62 91 4.3 8.7 0.00 0.00 0.00 44 1016.7
20260509191057 62 81 4.3 10.4 0.00 0.00 0.00 44 1016.7
20260509190558 62 80 4.3 10.4 0.00 0.00 0.00 44 1016.6
20260509190057 63 73 5.2 10.4 0.00 0.00 0.00 44 1016.5
20260509185556 63 66 4.3 10.4 0.00 0.00 0.00 43 1016.4
20260509185056 63 68 2.6 8.7 0.00 0.00 0.00 43 1016.5
20260509184602 64 114 3.5 9.6 0.00 0.00 0.00 42 1016.6
20260509184057 64 95 1.7 12.2 0.00 0.00 0.00 42 1016.5
20260509183556 64 134 2.6 12.2 0.00 0.00 0.00 42 1016.4
20260509183100 64 125 1.7 7.8 0.00 0.00 0.00 42 1016.4
20260509182600 65 85 2.6 9.6 0.00 0.00 0.00 41 1016.2
20260509182056 65 118 3.5 9.6 0.00 0.00 0.00 41 1016.1
20260509181558 65 122 1.7 8.7 0.00 0.00 0.00 42 1016.0
20260509181057 66 98 1.7 9.6 0.00 0.00 0.00 42 1016.0
20260509180557 66 101 3.5 10.4 0.00 0.00 0.00 41 1016.1
20260509180109 66 94 2.6 10.4 0.00 0.00 0.00 41 1016.0
20260509175557 66 80 3.5 11.3 0.00 0.00 0.00 41 1015.9
20260509175057 66 71 2.6 11.3 0.00 0.00 0.00 41 1015.9
20260509174620 66 101 6.1 11.3 0.00 0.00 0.00 40 1015.7
20260509174056 67 103 3.5 9.6 0.00 0.00 0.00 40 1015.7
20260509173555 67 85 4.3 9.6 0.00 0.00 0.00 39 1015.7
20260509173100 67 108 2.6 9.6 0.00 0.00 0.00 39 1015.6
20260509172557 67 56 5.2 9.6 0.00 0.00 0.00 38 1015.6
20260509172055 67 85 3.5 9.6 0.00 0.00 0.00 38 1015.6
20260509171557 68 80 4.3 9.6 0.00 0.00 0.00 38 1015.7
20260509171057 68 76 4.3 9.6 0.00 0.00 0.00 37 1015.8
20260509170554 68 82 4.3 9.6 0.00 0.00 0.00 37 1015.9
20260509165557 69 58 5.2 9.6 0.00 0.00 0.00 38 1015.8
20260509165058 69 79 4.3 9.6 0.00 0.00 0.00 38 1015.8
20260509164556 69 81 3.5 10.4 0.00 0.00 0.00 38 1015.8
20260509164053 69 41 4.3 10.4 0.00 0.00 0.00 37 1015.7
20260509163553 69 81 2.6 9.6 0.00 0.00 0.00 37 1015.7
20260509163100 69 99 3.5 9.6 0.00 0.00 0.00 37 1015.7